TimeCDT,TemperatureF,Dew PointF,Humidity,Sea Level PressureIn,VisibilityMPH,Wind Direction,Wind SpeedMPH,Gust SpeedMPH,PrecipitationIn,Events,Conditions,WindDirDegrees,DateUTC
12:15 AM,50.0,37.4,62,30.18,10.0,South,3.5,-,N/A,,Clear,170,2012-09-27 05:15:00
12:35 AM,48.2,36.1,63,30.18,10.0,South,3.5,-,N/A,,Clear,190,2012-09-27 05:35:00
12:55 AM,50.0,35.8,58,30.18,10.0,South,3.5,-,N/A,,Clear,190,2012-09-27 05:55:00
1:15 AM,48.2,35.6,62,30.18,10.0,South,3.5,-,N/A,,Clear,180,2012-09-27 06:15:00
1:35 AM,49.3,34.9,58,30.17,10.0,SSE,4.6,-,N/A,,Clear,150,2012-09-27 06:35:00
1:55 AM,50.2,34.2,54,30.18,10.0,SE,4.6,-,N/A,,Clear,140,2012-09-27 06:55:00
2:15 AM,50.0,33.6,53,30.18,10.0,SSE,4.6,-,N/A,,Clear,160,2012-09-27 07:15:00
2:35 AM,49.5,33.8,55,30.18,10.0,Calm,Calm,-,N/A,,Clear,0,2012-09-27 07:35:00
2:55 AM,47.1,33.8,60,30.18,10.0,Calm,Calm,-,N/A,,Clear,0,2012-09-27 07:55:00
3:15 AM,45.0,34.3,66,30.18,10.0,Calm,Calm,-,N/A,,Clear,0,2012-09-27 08:15:00
3:35 AM,43.3,34.0,70,30.19,10.0,SW,3.5,-,N/A,,Clear,230,2012-09-27 08:35:00
3:55 AM,43.3,33.8,69,30.19,10.0,WSW,3.5,-,N/A,,Clear,240,2012-09-27 08:55:00
4:15 AM,43.5,34.0,69,30.19,10.0,SW,3.5,-,N/A,,Clear,220,2012-09-27 09:15:00
4:35 AM,44.4,33.6,66,30.21,10.0,SSW,3.5,-,N/A,,Clear,210,2012-09-27 09:35:00
4:55 AM,41.9,32.9,70,30.20,10.0,Calm,Calm,-,N/A,,Clear,0,2012-09-27 09:55:00
5:15 AM,41.7,32.5,70,30.21,10.0,South,3.5,-,N/A,,Clear,190,2012-09-27 10:15:00
5:35 AM,41.0,33.3,74,30.21,10.0,SSE,3.5,-,N/A,,Clear,160,2012-09-27 10:35:00
5:55 AM,41.4,32.7,71,30.21,10.0,SSE,3.5,-,N/A,,Clear,160,2012-09-27 10:55:00
6:15 AM,41.2,32.4,71,30.21,10.0,SSE,3.5,-,N/A,,Clear,160,2012-09-27 11:15:00
6:35 AM,41.5,32.0,69,30.21,10.0,SSE,3.5,-,N/A,,Clear,160,2012-09-27 11:35:00
6:55 AM,40.5,32.7,74,30.21,10.0,South,3.5,-,N/A,,Clear,170,2012-09-27 11:55:00
7:15 AM,41.7,32.7,70,30.21,10.0,South,3.5,-,N/A,,Clear,170,2012-09-27 12:15:00
7:35 AM,40.3,32.2,73,30.21,10.0,Calm,Calm,-,N/A,,Clear,0,2012-09-27 12:35:00
7:55 AM,41.7,32.2,69,30.21,10.0,Calm,Calm,-,N/A,,Clear,0,2012-09-27 12:55:00
8:15 AM,43.9,32.5,64,30.21,10.0,SE,3.5,-,N/A,,Clear,130,2012-09-27 13:15:00
8:35 AM,48.0,31.8,54,30.21,10.0,Calm,Calm,-,N/A,,Clear,0,2012-09-27 13:35:00
8:55 AM,49.6,31.3,49,30.22,10.0,SSE,3.5,-,N/A,,Clear,150,2012-09-27 13:55:00
9:15 AM,51.6,32.0,47,30.22,10.0,SE,3.5,-,N/A,,Clear,140,2012-09-27 14:15:00
9:35 AM,54.1,31.5,42,30.22,10.0,SSE,3.5,-,N/A,,Clear,160,2012-09-27 14:35:00
9:55 AM,57.0,30.4,36,30.22,10.0,SSE,3.5,-,N/A,,Clear,160,2012-09-27 14:55:00
10:15 AM,59.9,30.6,33,30.22,10.0,SE,3.5,-,N/A,,Clear,140,2012-09-27 15:15:00
10:35 AM,62.6,31.5,31,30.21,10.0,SSE,4.6,-,N/A,,Clear,150,2012-09-27 15:35:00
10:55 AM,66.0,32.4,29,30.21,10.0,SSE,4.6,-,N/A,,Clear,150,2012-09-27 15:55:00
11:15 AM,67.6,39.4,36,30.21,10.0,SSE,3.5,-,N/A,,Clear,160,2012-09-27 16:15:00
11:35 AM,69.4,41.0,36,30.21,10.0,Calm,Calm,-,N/A,,Clear,0,2012-09-27 16:35:00
11:55 AM,70.5,40.8,34,30.21,10.0,Calm,Calm,-,N/A,,Clear,0,2012-09-27 16:55:00
12:15 PM,71.6,40.3,32,30.21,10.0,Calm,Calm,-,N/A,,Clear,0,2012-09-27 17:15:00
12:35 PM,72.7,40.1,31,30.21,10.0,Calm,Calm,-,N/A,,Clear,0,2012-09-27 17:35:00
12:55 PM,73.4,39.2,29,30.19,10.0,ENE,5.8,-,N/A,,Clear,70,2012-09-27 17:55:00
1:15 PM,74.8,40.1,29,30.19,10.0,SE,3.5,-,N/A,,Clear,130,2012-09-27 18:15:00
1:35 PM,74.8,40.5,29,30.18,10.0,East,4.6,-,N/A,,Clear,90,2012-09-27 18:35:00
1:55 PM,75.9,40.8,28,30.17,10.0,Calm,Calm,-,N/A,,Clear,0,2012-09-27 18:55:00
2:15 PM,76.1,40.3,28,30.16,10.0,SE,3.5,-,N/A,,Clear,140,2012-09-27 19:15:00
2:35 PM,77.0,40.1,27,30.15,10.0,South,3.5,-,N/A,,Clear,190,2012-09-27 19:35:00
2:55 PM,76.3,39.4,26,30.15,10.0,East,4.6,-,N/A,,Clear,90,2012-09-27 19:55:00
3:15 PM,76.3,38.5,26,30.15,10.0,NNE,4.6,-,N/A,,Clear,30,2012-09-27 20:15:00
3:35 PM,77.4,38.3,24,30.14,10.0,Calm,Calm,-,N/A,,Clear,0,2012-09-27 20:35:00
3:55 PM,77.2,38.1,24,30.14,10.0,SE,4.6,-,N/A,,Clear,130,2012-09-27 20:55:00
4:15 PM,76.6,38.3,25,30.13,10.0,East,5.8,-,N/A,,Clear,90,2012-09-27 21:15:00
4:35 PM,76.8,37.9,25,30.13,10.0,South,4.6,-,N/A,,Scattered Clouds,170,2012-09-27 21:35:00
4:55 PM,76.6,37.4,24,30.13,10.0,Calm,Calm,-,N/A,,Clear,0,2012-09-27 21:55:00
5:15 PM,77.0,37.4,24,30.13,10.0,Calm,Calm,-,N/A,,Clear,0,2012-09-27 22:15:00
5:35 PM,76.1,37.0,24,30.12,10.0,Calm,Calm,-,N/A,,Clear,0,2012-09-27 22:35:00
5:55 PM,76.1,39.4,27,30.13,10.0,East,5.8,-,N/A,,Clear,100,2012-09-27 22:55:00
6:15 PM,75.2,40.1,28,30.13,10.0,ESE,6.9,-,N/A,,Clear,110,2012-09-27 23:15:00
6:35 PM,74.8,40.1,29,30.13,10.0,ESE,5.8,-,N/A,,Clear,120,2012-09-27 23:35:00
6:55 PM,73.2,40.1,30,30.13,10.0,ESE,5.8,-,N/A,,Clear,110,2012-09-27 23:55:00
7:15 PM,70.7,40.1,33,30.13,10.0,ESE,3.5,-,N/A,,Clear,110,2012-09-28 00:15:00
7:35 PM,68.2,38.3,33,30.14,10.0,East,5.8,-,N/A,,Clear,100,2012-09-28 00:35:00
7:55 PM,65.5,37.0,35,30.14,7.0,East,6.9,-,N/A,,Clear,100,2012-09-28 00:55:00
8:15 PM,64.4,35.6,34,30.14,10.0,ESE,5.8,-,N/A,,Clear,110,2012-09-28 01:15:00
8:35 PM,64.6,34.5,33,30.15,10.0,ESE,5.8,-,N/A,,Clear,110,2012-09-28 01:35:00
8:55 PM,59.0,35.6,42,30.16,10.0,Calm,Calm,-,N/A,,Clear,0,2012-09-28 01:55:00
9:15 PM,62.6,35.6,37,30.16,10.0,Calm,Calm,-,N/A,,Clear,0,2012-09-28 02:15:00
9:35 PM,58.6,34.9,41,30.16,10.0,ENE,3.5,-,N/A,,Clear,60,2012-09-28 02:35:00
9:55 PM,56.5,35.1,45,30.17,10.0,ENE,5.8,-,N/A,,Clear,70,2012-09-28 02:55:00
10:15 PM,56.1,34.2,44,30.17,10.0,ENE,4.6,-,N/A,,Clear,70,2012-09-28 03:15:00
10:35 PM,54.9,34.2,46,30.17,10.0,East,5.8,-,N/A,,Clear,80,2012-09-28 03:35:00
10:55 PM,54.1,33.8,46,30.16,10.0,ENE,6.9,-,N/A,,Clear,70,2012-09-28 03:55:00
11:15 PM,53.2,33.4,47,30.17,10.0,East,5.8,-,N/A,,Clear,80,2012-09-28 04:15:00
11:35 PM,54.0,32.9,45,30.17,10.0,East,5.8,-,N/A,,Clear,90,2012-09-28 04:35:00
11:55 PM,53.2,32.4,45,30.17,10.0,East,5.8,-,N/A,,Clear,90,2012-09-28 04:55:00